Weather History for KHON - July, 2013

Change the Weather History Date:

Saturday, July 13, 2013

  Actual Average Record
Temperature  
Mean Temperature 80 °F 74 °F  
Max Temperature 88 °F 86 °F 106 °F (1974)
Min Temperature 72 °F 62 °F 44 °F (1967)
Degree Days  
Heating Degree Days 0 0  
Month to date heating degree days 0 0  
Since 1 June heating degree days 66 51  
Since 1 July heating degree days 0 0  
Cooling Degree Days 15 9  
Month to date cooling degree days 136 111  
Year to date cooling degree days 309 277  
Since 1 June cooling degree days 271 244  
Growing Degree Days 30 (Base 50)    
Moisture  
Dew Point 75 °F    
Average Humidity 85    
Maximum Humidity 100    
Minimum Humidity 60    
Precipitation  
Precipitation T in 0.09 in 1.33 in (1970)
Month to date precipitation 0.81 1.14  
Year to date precipitation 14.86 13.05  
Snow  
Snow 0.00 in 0.00 in 0.00 in ()
Month to date snowfall 0.0 0.0  
Since 1 June snowfall 0.0 0.0  
Since 1 July snowfall 0.0 0.0  
Snow Depth 0.00 in    
Sea Level Pressure  
Sea Level Pressure 29.86 in    
Wind  
Wind Speed 6 mph (ESE)    
Max Wind Speed 23 mph    
Max Gust Speed 30 mph    
Visibility 8 miles    
Events Rain    
T = Trace of Precipitation, MM = Missing Value Source: NWS Daily Summary

Daily Weather History Graph

Daily Weather History Graph

Search for Another Location

Airport or City:

Trip Planner

Search our weather history database for the weather conditions in past years. The results will help you decide how hot, cold, wet, or windy it might be!

Date:

Astronomy

Jul. 13, 2013 Rise Set
Actual Time 6:01 AM CDT 9:15 PM CDT
Civil Twilight 5:25 AM CDT 9:51 PM CDT
Nautical Twilight 4:39 AM CDT 10:37 PM CDT
Astronomical Twilight 3:42 AM CDT 11:33 PM CDT
Moon 11:33 AM CDT (7/13) 11:41 PM CDT (7/13)
Length of Visible Light 16h 25m
Length of Day
15h 14m
Waxing Crescent, 26% of the Moon is Illuminated
Jul 13
Waxing Crescent
Jul 15
First Quarter
Jul 22
Full
Jul 29
Last Quarter
Aug 6
New

Hourly Weather History & Observations

Time (CDT) Temp. Heat Index Dew Point Humidity Pressure Visibility Wind Dir Wind Speed Gust Speed Precip Events Conditions
12:55 AM 78.1 °F - 73.9 °F 87% 29.83 in 10.0 mi West 5.8 mph - N/A   Clear
1:55 AM 75.0 °F - 73.9 °F 96% 29.83 in 10.0 mi West 3.5 mph - N/A   Clear
2:55 AM 73.9 °F - 73.0 °F 97% 29.83 in 9.0 mi Calm Calm - N/A   Clear
3:55 AM 73.0 °F - 73.0 °F 100% 29.82 in 7.0 mi NW 4.6 mph - N/A   Clear
4:55 AM 72.0 °F - 72.0 °F 100% 29.83 in 6.0 mi North 4.6 mph - N/A   Clear
5:55 AM 73.0 °F - 73.0 °F 100% 29.86 in 6.0 mi WNW 6.9 mph - N/A   Clear
6:47 AM 73.4 °F - 73.4 °F 100% 29.89 in 4.0 mi NW 5.8 mph - N/A   Scattered Clouds
6:55 AM 73.0 °F - 73.0 °F 100% 29.85 in 4.0 mi NNW 8.1 mph - N/A   Mostly Cloudy
7:15 AM 73.4 °F - 73.4 °F 100% 29.87 in 6.0 mi North 10.4 mph - N/A   Mostly Cloudy
7:29 AM 73.4 °F - 73.4 °F 100% 29.91 in 6.0 mi WNW 8.1 mph - 0.00 in Rain Light Rain
7:55 AM 73.9 °F - 73.9 °F 100% 29.87 in 6.0 mi NW 4.6 mph - 0.00 in Rain Light Rain
8:03 AM 73.4 °F - 73.4 °F 100% 29.93 in 6.0 mi Variable 3.5 mph - 0.00 in Rain Light Rain
8:48 AM 73.4 °F - 73.4 °F 100% 29.79 in 4.0 mi ENE 20.7 mph 29.9 mph 0.00 in   Scattered Clouds
8:55 AM 73.9 °F - 73.9 °F 100% 29.76 in 4.0 mi NE 18.4 mph 26.5 mph 0.00 in   Mostly Cloudy
9:41 AM 77.0 °F - 75.2 °F 94% 29.89 in 7.0 mi Calm Calm - N/A   Scattered Clouds
9:55 AM 78.1 °F - 75.9 °F 93% 29.86 in 7.0 mi South 3.5 mph - N/A   Scattered Clouds
10:08 AM 78.8 °F - 75.2 °F 89% 29.89 in 8.0 mi Calm Calm - N/A   Partly Cloudy
10:43 AM 80.6 °F 86.2 °F 75.2 °F 84% 29.89 in 9.0 mi ESE 5.8 mph - N/A   Mostly Cloudy
10:55 AM 81.0 °F 87.3 °F 75.9 °F 85% 29.86 in 8.0 mi East 4.6 mph - N/A   Mostly Cloudy
11:55 AM 82.9 °F 90.8 °F 75.9 °F 79% 29.87 in 9.0 mi ESE 5.8 mph - N/A   Mostly Cloudy
12:55 PM 84.0 °F 92.6 °F 75.9 °F 76% 29.88 in 9.0 mi ESE 6.9 mph - N/A   Mostly Cloudy
1:14 PM 84.2 °F 92.3 °F 75.2 °F 74% 29.91 in 9.0 mi ESE 8.1 mph - N/A   Scattered Clouds
1:55 PM 84.9 °F 93.3 °F 75.0 °F 72% 29.87 in 10.0 mi ESE 6.9 mph - N/A   Clear
2:55 PM 87.1 °F 96.3 °F 75.0 °F 67% 29.86 in 10.0 mi SE 6.9 mph - N/A   Clear
3:55 PM 88.0 °F 98.5 °F 75.9 °F 67% 29.86 in 10.0 mi Variable 5.8 mph - N/A   Clear
4:16 PM 87.8 °F 97.6 °F 75.2 °F 66% 29.89 in 10.0 mi ESE 8.1 mph - N/A   Scattered Clouds
4:25 PM 86.0 °F 95.1 °F 75.2 °F 70% 29.89 in 10.0 mi SE 8.1 mph - N/A   Mostly Cloudy
4:32 PM 87.8 °F 97.6 °F 75.2 °F 66% 29.89 in 10.0 mi SSE 5.8 mph - N/A   Scattered Clouds
4:55 PM 88.0 °F 97.5 °F 75.0 °F 65% 29.85 in 10.0 mi SE 6.9 mph - N/A   Clear
5:55 PM 87.1 °F 96.3 °F 75.0 °F 67% 29.85 in 10.0 mi South 10.4 mph 16.1 mph N/A   Clear
6:55 PM 86.0 °F 95.1 °F 75.0 °F 70% 29.84 in 10.0 mi SSE 5.8 mph - N/A   Clear
7:55 PM 84.9 °F 94.1 °F 75.9 °F 74% 29.83 in 10.0 mi SE 4.6 mph - N/A   Clear
8:55 PM 82.9 °F 90.8 °F 75.9 °F 79% 29.83 in 10.0 mi SE 4.6 mph - N/A   Clear
9:55 PM 81.0 °F 87.9 °F 77.0 °F 88% 29.85 in 10.0 mi Calm Calm - N/A   Clear
10:55 PM 80.1 °F 85.8 °F 77.0 °F 90% 29.88 in 9.0 mi ESE 3.5 mph - N/A   Clear
11:55 PM 79.0 °F - 77.0 °F 94% 29.89 in 8.0 mi East 4.6 mph - N/A   Clear